Flag for U.S.A. Weather past 2 weeks in Naples, Florida, U.S.A.

Now
71 °F

Clear.


Feels Like: 67 °F
Forecast: 75 / 87 °F
Wind: 6 mph from Northeast

Location: Naples Municipal

Current Time: May 30, 2015 at 6:48:45 AM

Latest Report: May 30, 2015 at 5:53 AM


Visibility: 10 mi

Pressure: 30.02 "Hg

Humidity: 93%

Dew point: 69 °F

Location of NaplesLocation

Historic Weather in Naples — Graph

°F

Naples temperature yesterday

Maximum temperature yesterday: 87 °F (at 12:53 PM)
Minimum temperature yesterday: 68 °F (at 5:53 AM)
Average temperature yesterday: 78 °F

Past Weeks' High & Low Weather Summary

 TemperatureHumidityPressure
High92 °F (May 24, 2:53 PM)97% (May 18, 3:53 AM)30.19 "Hg (May 18, 3:53 AM)
Low68 °F (May 29, 5:53 AM)34% (May 28, 3:53 PM)29.94 "Hg (May 20, 6:53 PM)
Average80 °F73%30.08 "Hg
* Reported May 15 4:53 AM — May 30 4:53 AM, Naples, Weather by CustomWeather, © 2015

Note: Actual official high and low records may vary slightly from our data, if they occured in-between our weather recording intervals... More about our weather records

Advertising

Naples weather history for previous 24 hours

 ConditionsComfort  
Time TempWeatherWind HumidityBarometerVisibility
4:53 AM
Sat, May 30
72 °FClear.6 mph91%30.01 "Hg10 mi
3:53 AM74 °FClear.7 mph85%30.01 "Hg10 mi
2:53 AM74 °FClear.7 mph85%30.01 "Hg10 mi
1:53 AM76 °FClear.7 mph80%30.02 "Hg10 mi
12:53 AM76 °FClear.9 mph80%30.03 "Hg10 mi
11:53 PM
Fri, May 29
77 °FClear.8 mph77%30.05 "Hg10 mi
10:53 PM79 °FClear.9 mph72%30.04 "Hg10 mi
9:53 PM80 °FPassing clouds.10 mph69%30.03 "Hg10 mi
8:53 PM81 °FBroken clouds.9 mph74%30.02 "Hg10 mi
7:53 PM81 °FBroken clouds.5 mph74%30.01 "Hg10 mi
6:53 PM82 °FMostly cloudy.14 mph72%30.00 "Hg10 mi
5:53 PM82 °FLight rain. Cloudy.10 mph67%30.00 "Hg9 mi
4:53 PM85 °FScattered clouds.12 mph57%30.00 "Hg10 mi
3:53 PM84 °FPassing clouds.15 mph55%30.01 "Hg10 mi
2:53 PM85 °FPartly sunny.13 mph51%30.03 "Hg10 mi
1:53 PM85 °FMostly cloudy.9 mph51%30.06 "Hg10 mi
12:53 PM87 °FScattered clouds.No wind48%30.05 "Hg10 mi
11:53 AM85 °FScattered clouds.8 mph51%30.07 "Hg10 mi
10:53 AM83 °FSunny.10 mph53%30.07 "Hg10 mi
9:53 AM81 °FSunny.8 mph56%30.06 "Hg10 mi
8:53 AM77 °FSunny.7 mph66%30.06 "Hg10 mi
7:53 AM72 °FSunny.5 mph73%30.04 "Hg10 mi
6:53 AM68 °FClear.6 mph84%30.03 "Hg10 mi
Weather by CustomWeather, © 2015

See weather overviewHow to use our weather pages